This demonstration page uses our WeatherBlox Daily Observations layout. Learn more.

Left ArrowRight Arrow

41.55636, -103.73856

Hourly Observations for December 28, 2017

Temp ( °F °C ) Dew Point ( °F °C ) Humidity (%) Winds ( mph kmh ) Pressure ( in mb ) Visibility ( mi km ) Precip ( " mm )
12:53 am 00:53 Clear N/A -2 -18.9 91 91 NW 5 7 30.30 1026 7 11 N/A
1:53 am 01:53 Clear 4 -15.6 N/A 83 83 NNW 12 19 30.34 1027 9 14 N/A
2:53 am 02:53 Mostly Clear 4 -15.6 1 -17.2 88 88 W 6 9 30.37 1029 8 13 N/A
3:53 am 03:53 Mostly Cloudy 8 -13.3 4 -15.6 83 83 N N/A 30.37 1028 8 13 N/A
4:53 am 04:53 Clear 11 -11.7 7 -13.9 84 84 NW 8 13 30.39 1029 10 16 N/A
5:53 am 05:53 Clear 10 -12.2 7 -13.9 87 87 NNW 7 11 30.41 1030 10 16 N/A
6:16 am 06:16 Mostly Cloudy 9 -13 7 -14 92 92 NNW 8 13 30.53 1034 10 16 N/A
6:24 am 06:24 Partly Cloudy 10 -12 7 -14 85 85 NNW 9 15 30.50 1033 10 16 N/A
6:50 am 06:50 Mostly Cloudy 12 -11 10 -12 92 92 N 9 15 30.50 1033 10 16 N/A
6:53 am 06:53 Mostly Cloudy 15 -9.4 11 -11.7 84 84 N 10 17 30.42 1030 10 16 N/A
7:53 am 07:53 Mostly Cloudy 16 -8.9 13 -10.6 88 88 WNW 6 9 30.45 1031 10 16 N/A
8:01 am 08:01 Partly Cloudy 15 -9.4 12 -11.1 88 88 WNW 8 13 30.53 1034 10 16 N/A
8:53 am 08:53 Sunny 13 -10.6 10 -12.2 88 88 WNW 7 11 30.48 1032 10 16 N/A
9:53 am 09:53 Mostly Sunny 16 -8.9 12 -11.1 84 84 N N/A 30.47 1032 9 14 N/A
10:53 am 10:53 Sunny 18 -7.8 13 -10.6 81 81 NNW 12 19 30.48 1032 10 16 N/A
11:53 am 11:53 Sunny 19 -7.2 14 -10 81 81 NW 10 17 30.47 1032 10 16 N/A
12:53 pm 12:53 Sunny 21 -6.1 16 -8.9 81 81 N 5 7 30.42 1030 10 16 N/A
1:53 pm 13:53 Sunny 22 -5.6 17 -8.3 82 82 NNE 5 7 30.37 1029 10 16 N/A
2:53 pm 14:53 Sunny 22 -5.6 17 -8.3 82 82 E 3 6 30.35 1028 10 16 N/A
3:53 pm 15:53 Partly Cloudy 22 -5.6 17 -8.3 82 82 E 7 11 30.33 1027 10 16 N/A
4:53 pm 16:53 Mostly Clear 24 -4.4 20 -6.7 84 84 ENE 5 7 30.30 1026 10 16 N/A
5:53 pm 17:53 Clear 30 -1.1 23 -5 75 75 SSE 9 15 30.27 1025 10 16 N/A
6:53 pm 18:53 Partly Cloudy 32 undefined 24 -4.4 73 73 SSE 8 13 30.23 1024 10 16 N/A
7:53 pm 19:53 Mostly Clear 31 -0.6 22 -5.6 69 69 SSE 8 13 30.20 1023 10 16 N/A
8:53 pm 20:53 Clear 32 undefined 23 -5 69 69 S 9 15 30.19 1023 10 16 N/A
9:53 pm 21:53 Clear 31 -0.6 23 -5 72 72 SSE 9 15 30.17 1022 10 16 N/A
10:53 pm 22:53 Clear 29 -1.7 22 -5.6 75 75 E 8 13 30.13 1020 10 16 N/A
11:53 pm 23:53 Clear 23 -5 19 -7.2 85 85 E 9 15 30.10 1019 10 16 N/A

Powered by AerisWeather